Weather History for Latrobe, PA

Change the Weather History Date:

Wednesday, March 12, 2014

  Actual Average Record
Temperature  
Mean Temperature 42 °F -  
Max Temperature 57 °F 45 °F 64 °F (2012)
Min Temperature 26 °F 28 °F 14 °F (1998)
Degree Days  
Heating Degree Days 24    
Moisture  
Dew Point 40 °F    
Average Humidity 93    
Maximum Humidity 100    
Minimum Humidity 74    
Precipitation  
Precipitation 0.00 in - - ()
Sea Level Pressure  
Sea Level Pressure 29.30 in    
Wind  
Wind Speed 6 mph (West)    
Max Wind Speed 22 mph    
Max Gust Speed 39 mph    
Visibility 5 miles    
Events Rain , Snow    
Averages and records for this station are not official NWS values.
T = Trace of Precipitation, MM = Missing Value Source: NWS Daily Summary

Daily Weather History Graph

Daily Weather History Graph

Search for Another Location

Airport:

Trip Planner

Search our weather history database for the weather conditions in past years. The results will help you decide how hot, cold, wet, or windy it might be!

Date:

Astronomy

Mar. 12, 2014 Rise Set
Actual Time 7:34 AM EDT 7:21 PM EDT
Civil Twilight 7:06 AM EDT 7:48 PM EDT
Nautical Twilight 6:35 AM EDT 8:19 PM EDT
Astronomical Twilight 6:03 AM EDT 8:51 PM EDT
Moon 3:50 PM EDT (3/12) 5:05 AM EDT (3/12)
Length of Visible Light 12h 41m
Length of Day
11h 47m
Waxing Gibbous, 85% of the Moon is Illuminated
Mar 12
Waxing Gibbous
Mar 16
Full
Mar 23
Last Quarter
Mar 30
New
Apr 7
First Quarter

Hourly Weather History & Observations

Time (EDT) Temp. Windchill Dew Point Humidity Pressure Visibility Wind Dir Wind Speed Gust Speed Precip Events Conditions
6:05 AM 42.8 °F - 37.4 °F 81% 29.42 in 10.0 mi Calm Calm - N/A   Mostly Cloudy
6:55 AM 42.8 °F - 37.4 °F 81% 29.38 in 10.0 mi Calm Calm - N/A   Overcast
7:50 AM 42.8 °F - 39.2 °F 87% 29.36 in 6.0 mi Calm Calm - N/A Rain Light Rain
8:50 AM 42.8 °F - 41.0 °F 93% 29.31 in 6.0 mi Calm Calm - N/A Rain Light Rain
9:15 AM 42.8 °F - 42.8 °F 100% 29.32 in 2.5 mi Calm Calm - N/A Rain Rain
9:50 AM 42.8 °F - 42.8 °F 100% 29.31 in 1.5 mi Calm Calm - N/A Rain Rain
10:50 AM 42.8 °F - 42.8 °F 100% 29.25 in - Calm Calm - N/A Rain Rain
11:47 AM 48.2 °F - 48.2 °F 100% 29.19 in 2.0 mi West 3.5 mph - N/A Rain Light Rain
12:36 PM 53.6 °F - 53.6 °F 100% 29.13 in 3.0 mi South 10.4 mph - N/A   Overcast
12:50 PM 53.6 °F - 53.6 °F 100% 29.11 in 8.0 mi South 11.5 mph - N/A   Overcast
1:50 PM 57.2 °F - 55.4 °F 94% 29.09 in 1.2 mi West 21.9 mph 39.1 mph N/A Rain Light Rain
2:05 PM 53.6 °F - 51.8 °F 94% 29.09 in 3.0 mi SW 16.1 mph 27.6 mph N/A Rain Light Rain
2:45 PM 53.6 °F - 53.6 °F 100% 29.07 in 3.0 mi SW 6.9 mph - N/A Rain Light Rain
3:45 PM 44.6 °F 37.4 °F 44.6 °F 100% 29.12 in 10.0 mi WSW 16.1 mph 27.6 mph N/A   Overcast
4:50 PM 37.4 °F 27.8 °F 37.4 °F 100% 29.23 in 1.0 mi West 17.3 mph 28.8 mph N/A Rain Light Rain
5:50 PM 32.0 °F 20.5 °F 32.0 °F 100% 29.37 in 1.0 mi WNW 18.4 mph - N/A Snow Light Snow
6:50 PM 30.2 °F 20.8 °F 28.4 °F 93% 29.48 in 2.0 mi WNW 11.5 mph 27.6 mph N/A Snow Light Snow
7:50 PM 28.4 °F 16.2 °F 23.0 °F 80% 29.56 in 4.0 mi WNW 17.3 mph 28.8 mph N/A Snow Light Snow
8:50 PM 26.6 °F 13.8 °F 19.4 °F 74% 29.63 in 8.0 mi WNW 17.3 mph - N/A Snow Light Snow
9:50 PM 26.6 °F 12.7 °F 19.4 °F 74% 29.65 in 8.0 mi WNW 20.7 mph - N/A Snow Light Snow